ARE296 SKCL-SKBQ

Flight info

Callsign ARE296
Flight time 1h 31m
Altitude 25000
Route ULQ1K ULQ DCT RNG UW26 MRN UW3 VOVLU VOVLU4A
Aircraft DH8D/M-SDE2E3FGRY/H

Departure

Time 2026-05-03 21:27
Airport Alfonso Bonilla Aragon International Airport (SKCL)

Arrival

Time 2026-05-03 22:59
Airport Ernesto Cortissoz International Airport (SKBQ)
Time Latitude Longitude Altitude Speed Heading
2026-05-03 20:57 3.54007 -76.38682 3167 ft 0 kts 279°
2026-05-03 21:14 3.54007 -76.38683 3166 ft 0 kts 279°
2026-05-03 21:15 3.54006 -76.38676 3167 ft 2 kts 292°
2026-05-03 21:15 3.53997 -76.38664 3167 ft 2 kts 324°
2026-05-03 21:15 3.53984 -76.38658 3167 ft 2 kts 353°
2026-05-03 21:15 3.53974 -76.38658 3167 ft 0 kts 11°
2026-05-03 21:16 3.53989 -76.38658 3167 ft 2 kts
2026-05-03 21:16 3.54001 -76.38650 3167 ft 2 kts 65°
2026-05-03 21:16 3.54002 -76.38642 3167 ft 0 kts 100°
2026-05-03 21:16 3.54001 -76.38637 3167 ft 0 kts 99°
2026-05-03 21:19 3.54001 -76.38636 3167 ft 0 kts 99°
2026-05-03 21:19 3.53997 -76.38622 3167 ft 3 kts 111°
2026-05-03 21:20 3.53973 -76.38606 3166 ft 5 kts 176°
2026-05-03 21:20 3.53930 -76.38612 3167 ft 6 kts 189°
2026-05-03 21:20 3.53892 -76.38618 3167 ft 5 kts 189°
2026-05-03 21:20 3.53857 -76.38622 3168 ft 5 kts 176°
2026-05-03 21:21 3.53823 -76.38607 3168 ft 6 kts 146°
2026-05-03 21:21 3.53779 -76.38577 3167 ft 8 kts 144°
2026-05-03 21:21 3.53722 -76.38536 3166 ft 10 kts 144°
2026-05-03 21:21 3.53661 -76.38493 3165 ft 10 kts 144°
2026-05-03 21:22 3.53602 -76.38461 3165 ft 9 kts 172°
2026-05-03 21:22 3.53536 -76.38469 3165 ft 9 kts 189°
2026-05-03 21:22 3.53472 -76.38480 3165 ft 8 kts 190°
2026-05-03 21:22 3.53417 -76.38490 3164 ft 7 kts 189°
2026-05-03 21:23 3.53371 -76.38497 3164 ft 6 kts 189°
2026-05-03 21:23 3.53331 -76.38503 3164 ft 5 kts 190°
2026-05-03 21:23 3.53290 -76.38512 3164 ft 7 kts 190°
2026-05-03 21:23 3.53235 -76.38521 3165 ft 8 kts 189°
2026-05-03 21:24 3.53170 -76.38532 3164 ft 10 kts 190°
2026-05-03 21:24 3.53091 -76.38545 3163 ft 11 kts 190°
2026-05-03 21:24 3.53020 -76.38558 3163 ft 9 kts 190°
2026-05-03 21:24 3.52966 -76.38543 3163 ft 7 kts 131°
2026-05-03 21:25 3.52950 -76.38498 3163 ft 6 kts 97°
2026-05-03 21:25 3.52966 -76.38464 3163 ft 5 kts 47°
2026-05-03 21:25 3.52992 -76.38438 3163 ft 4 kts 53°
2026-05-03 21:25 3.53000 -76.38407 3163 ft 4 kts 57°
2026-05-03 21:26 3.53029 -76.38393 3163 ft 4 kts 11°
2026-05-03 21:26 3.53061 -76.38387 3163 ft 10 kts
2026-05-03 21:26 3.53373 -76.38333 3165 ft 87 kts
2026-05-03 21:26 3.54209 -76.38187 3172 ft 149 kts 12°
2026-05-03 21:27 3.55299 -76.37993 3405 ft 166 kts 10°
2026-05-03 21:27 3.56468 -76.37775 3896 ft 174 kts 12°
2026-05-03 21:27 3.57689 -76.37530 4415 ft 182 kts 11°
2026-05-03 21:27 3.58927 -76.37306 4839 ft 187 kts 10°
2026-05-03 21:28 3.60280 -76.37059 5047 ft 200 kts 10°
2026-05-03 21:28 3.61698 -76.36814 5301 ft 211 kts
2026-05-03 21:28 3.63160 -76.36597 5644 ft 216 kts
2026-05-03 21:28 3.64626 -76.36243 6010 ft 220 kts 19°
2026-05-03 21:29 3.66096 -76.35747 6373 ft 223 kts 18°
2026-05-03 21:29 3.67577 -76.35246 6764 ft 225 kts 23°
2026-05-03 21:29 3.69001 -76.34607 7217 ft 222 kts 23°
2026-05-03 21:29 3.70484 -76.34132 7555 ft 227 kts 14°
2026-05-03 21:30 3.72042 -76.33778 7932 ft 229 kts 13°
2026-05-03 21:30 3.73605 -76.33424 8298 ft 231 kts 13°
2026-05-03 21:30 3.75170 -76.33090 8680 ft 231 kts 13°
2026-05-03 21:30 3.76741 -76.32691 8956 ft 235 kts 16°
2026-05-03 21:31 3.78321 -76.32220 9283 ft 236 kts 19°
2026-05-03 21:31 3.79882 -76.31650 9601 ft 237 kts 23°
2026-05-03 21:31 3.81406 -76.31017 9893 ft 238 kts 22°
2026-05-03 21:31 3.82976 -76.30445 10156 ft 241 kts 20°
2026-05-03 21:32 3.84572 -76.29894 10433 ft 241 kts 19°
2026-05-03 21:32 3.86195 -76.29393 10710 ft 242 kts 17°
2026-05-03 21:32 3.87838 -76.28951 10947 ft 245 kts 15°
2026-05-03 21:32 3.89484 -76.28550 11223 ft 245 kts 15°
2026-05-03 21:33 3.91144 -76.28124 11506 ft 245 kts 16°
2026-05-03 21:33 3.92834 -76.27679 11586 ft 253 kts 16°
2026-05-03 21:33 3.94550 -76.27214 11802 ft 255 kts 17°
2026-05-03 21:33 3.96273 -76.26753 12030 ft 256 kts 16°
2026-05-03 21:34 3.98011 -76.26283 12279 ft 257 kts 17°
2026-05-03 21:34 3.99742 -76.25821 12489 ft 258 kts 17°
2026-05-03 21:34 4.01489 -76.25364 12665 ft 259 kts 17°
2026-05-03 21:34 4.03201 -76.24850 12871 ft 258 kts 22°
2026-05-03 21:35 4.04887 -76.24174 13074 ft 259 kts 24°
2026-05-03 21:35 4.06588 -76.23508 13301 ft 261 kts 23°
2026-05-03 21:35 4.08297 -76.22874 13510 ft 262 kts 22°
2026-05-03 21:35 4.09990 -76.22208 13739 ft 262 kts 26°
2026-05-03 21:36 4.11664 -76.21446 13958 ft 262 kts 27°
2026-05-03 21:36 4.13336 -76.20689 14127 ft 264 kts 27°
2026-05-03 21:36 4.15019 -76.19938 14336 ft 264 kts 26°
2026-05-03 21:36 4.16699 -76.19199 14510 ft 264 kts 26°
2026-05-03 21:37 4.18397 -76.18457 14697 ft 266 kts 26°
2026-05-03 21:37 4.20107 -76.17715 14904 ft 266 kts 26°
2026-05-03 21:37 4.21807 -76.16982 15062 ft 267 kts 26°
2026-05-03 21:37 4.23514 -76.16250 15211 ft 268 kts 26°
2026-05-03 21:38 4.25235 -76.15511 15375 ft 268 kts 26°
2026-05-03 21:38 4.26975 -76.14766 15602 ft 269 kts 26°
2026-05-03 21:38 4.28691 -76.14034 15767 ft 270 kts 26°
2026-05-03 21:38 4.30436 -76.13290 15954 ft 270 kts 26°
2026-05-03 21:39 4.32163 -76.12553 16128 ft 271 kts 26°
2026-05-03 21:39 4.33905 -76.11812 16307 ft 271 kts 26°
2026-05-03 21:39 4.35665 -76.11063 16450 ft 272 kts 26°
2026-05-03 21:39 4.37407 -76.10321 16615 ft 272 kts 26°
2026-05-03 21:40 4.39140 -76.09584 16756 ft 273 kts 26°
2026-05-03 21:40 4.40911 -76.08830 16857 ft 274 kts 26°
2026-05-03 21:40 4.42683 -76.08076 16984 ft 275 kts 26°
2026-05-03 21:40 4.44444 -76.07327 17081 ft 276 kts 26°
2026-05-03 21:41 4.46204 -76.06577 17207 ft 276 kts 26°
2026-05-03 21:41 4.47985 -76.05820 17327 ft 277 kts 26°
2026-05-03 21:41 4.49777 -76.05057 17463 ft 277 kts 26°
2026-05-03 21:41 4.51562 -76.04298 17586 ft 277 kts 26°
2026-05-03 21:42 4.53327 -76.03547 17692 ft 278 kts 26°
2026-05-03 21:42 4.55135 -76.02777 17785 ft 279 kts 26°
2026-05-03 21:42 4.56925 -76.02016 17891 ft 279 kts 26°
2026-05-03 21:42 4.58720 -76.01252 17979 ft 280 kts 26°
2026-05-03 21:43 4.60520 -76.00485 18047 ft 283 kts 26°
2026-05-03 21:43 4.62344 -75.99709 18061 ft 287 kts 26°
2026-05-03 21:43 4.64195 -75.98920 18064 ft 291 kts 26°
2026-05-03 21:43 4.66085 -75.98115 18065 ft 294 kts 26°
2026-05-03 21:44 4.67984 -75.97307 18064 ft 297 kts 26°
2026-05-03 21:44 4.69905 -75.96489 18069 ft 300 kts 26°
2026-05-03 21:44 4.71844 -75.95664 18065 ft 302 kts 26°
2026-05-03 21:44 4.73786 -75.94836 18059 ft 304 kts 26°
2026-05-03 21:45 4.75731 -75.94009 18063 ft 306 kts 26°
2026-05-03 21:45 4.77725 -75.93160 18063 ft 308 kts 26°
2026-05-03 21:45 4.79692 -75.92322 18072 ft 309 kts 26°
2026-05-03 21:45 4.81693 -75.91470 18080 ft 311 kts 26°
2026-05-03 21:46 4.83698 -75.90616 18091 ft 312 kts 26°
2026-05-03 21:46 4.85684 -75.89770 18101 ft 313 kts 26°
2026-05-03 21:46 4.87702 -75.88910 18109 ft 314 kts 25°
2026-05-03 21:46 4.89733 -75.88045 18114 ft 315 kts 26°
2026-05-03 21:47 4.91759 -75.87181 18116 ft 315 kts 25°
2026-05-03 21:47 4.93777 -75.86322 18124 ft 316 kts 26°
2026-05-03 21:47 4.95798 -75.85460 18129 ft 317 kts 25°
2026-05-03 21:47 4.97840 -75.84590 18141 ft 317 kts 25°
2026-05-03 21:48 4.99870 -75.83725 18123 ft 318 kts 25°
2026-05-03 21:48 5.01919 -75.82851 18133 ft 318 kts 26°
2026-05-03 21:48 5.03952 -75.81985 18140 ft 318 kts 26°
2026-05-03 21:48 5.06021 -75.81104 18157 ft 319 kts 26°
2026-05-03 21:49 5.08058 -75.80235 18152 ft 320 kts 26°
2026-05-03 21:49 5.10105 -75.79363 18149 ft 320 kts 26°
2026-05-03 21:49 5.12151 -75.78490 18149 ft 320 kts 26°
2026-05-03 21:49 5.14207 -75.77613 18156 ft 320 kts 26°
2026-05-03 21:50 5.16275 -75.76732 18148 ft 320 kts 26°
2026-05-03 21:50 5.18324 -75.75858 18135 ft 319 kts 25°
2026-05-03 21:50 5.20360 -75.74990 18144 ft 319 kts 26°
2026-05-03 21:50 5.22421 -75.74111 18152 ft 319 kts 26°
2026-05-03 21:51 5.24473 -75.73236 18153 ft 318 kts 26°
2026-05-03 21:51 5.26499 -75.72372 18159 ft 317 kts 26°
2026-05-03 21:51 5.28540 -75.71500 18174 ft 316 kts 26°
2026-05-03 21:51 5.30571 -75.70634 18185 ft 316 kts 26°
2026-05-03 21:52 5.32596 -75.69771 18190 ft 316 kts 26°
2026-05-03 21:52 5.34614 -75.68910 18196 ft 316 kts 26°
2026-05-03 21:52 5.36648 -75.68042 18207 ft 315 kts 26°
2026-05-03 21:52 5.38661 -75.67183 18204 ft 316 kts 26°
2026-05-03 21:53 5.40699 -75.66312 18208 ft 316 kts 26°
2026-05-03 21:53 5.42725 -75.65448 18208 ft 315 kts 26°
2026-05-03 21:53 5.44761 -75.64579 18215 ft 315 kts 26°
2026-05-03 21:53 5.46757 -75.63728 18219 ft 315 kts 26°
2026-05-03 21:54 5.48776 -75.62865 18228 ft 314 kts 26°
2026-05-03 21:54 5.50798 -75.62002 18231 ft 314 kts 26°
2026-05-03 21:54 5.52828 -75.61135 18231 ft 314 kts 26°
2026-05-03 21:54 5.54848 -75.60272 18232 ft 314 kts 26°
2026-05-03 21:55 5.56852 -75.59417 18230 ft 314 kts 26°
2026-05-03 21:55 5.58890 -75.58546 18232 ft 314 kts 26°
2026-05-03 21:55 5.60898 -75.57688 18228 ft 315 kts 26°
2026-05-03 21:55 5.62911 -75.56828 18215 ft 315 kts 26°
2026-05-03 21:56 5.64957 -75.55955 18218 ft 315 kts 26°
2026-05-03 21:56 5.66978 -75.55091 18221 ft 315 kts 26°
2026-05-03 21:56 5.68990 -75.54231 18219 ft 315 kts 26°
2026-05-03 21:56 5.71007 -75.53370 18217 ft 315 kts 26°
2026-05-03 21:57 5.73032 -75.52504 18224 ft 315 kts 26°
2026-05-03 21:57 5.75044 -75.51644 18233 ft 315 kts 26°
2026-05-03 21:57 5.77079 -75.50774 18232 ft 315 kts 26°
2026-05-03 21:57 5.79102 -75.49910 18234 ft 316 kts 26°
2026-05-03 21:58 5.81074 -75.49067 18239 ft 316 kts 26°
2026-05-03 21:58 5.83104 -75.48199 18239 ft 316 kts 26°
2026-05-03 21:58 5.85133 -75.47332 18237 ft 317 kts 26°
2026-05-03 21:58 5.87158 -75.46466 18236 ft 317 kts 26°
2026-05-03 21:59 5.89214 -75.45587 18227 ft 317 kts 26°
2026-05-03 21:59 5.91243 -75.44719 18229 ft 317 kts 26°
2026-05-03 21:59 5.93281 -75.43848 18225 ft 317 kts 26°
2026-05-03 21:59 5.95297 -75.42986 18219 ft 316 kts 26°
2026-05-03 22:00 5.97322 -75.42120 18231 ft 316 kts 26°
2026-05-03 22:00 5.99341 -75.41234 18225 ft 315 kts 28°
2026-05-03 22:00 6.01334 -75.40274 18228 ft 314 kts 29°
2026-05-03 22:00 6.03300 -75.39314 18267 ft 313 kts 28°
2026-05-03 22:01 6.05264 -75.38358 18299 ft 313 kts 28°
2026-05-03 22:01 6.07230 -75.37402 18284 ft 314 kts 29°
2026-05-03 22:01 6.09210 -75.36442 18298 ft 314 kts 28°
2026-05-03 22:01 6.11187 -75.35484 18304 ft 315 kts 28°
2026-05-03 22:02 6.13173 -75.34524 18308 ft 315 kts 29°
2026-05-03 22:02 6.15160 -75.33562 18304 ft 316 kts 28°
2026-05-03 22:02 6.17151 -75.32620 18299 ft 318 kts 26°
2026-05-03 22:02 6.19304 -75.32053 18298 ft 322 kts 12°
2026-05-03 22:03 6.21531 -75.31717 18290 ft 323 kts 11°
2026-05-03 22:03 6.23777 -75.31387 18285 ft 324 kts 11°
2026-05-03 22:03 6.26016 -75.31055 18276 ft 324 kts 11°
2026-05-03 22:03 6.28270 -75.30720 18272 ft 327 kts 11°
2026-05-03 22:04 6.30519 -75.30383 18229 ft 329 kts 11°
2026-05-03 22:04 6.32809 -75.30038 18210 ft 329 kts 11°
2026-05-03 22:04 6.35069 -75.29697 18193 ft 330 kts 11°
2026-05-03 22:04 6.37358 -75.29350 18181 ft 329 kts 11°
2026-05-03 22:05 6.39627 -75.29006 18172 ft 329 kts 11°
2026-05-03 22:05 6.41898 -75.28661 18162 ft 329 kts 11°
2026-05-03 22:05 6.44175 -75.28316 18167 ft 328 kts 11°
2026-05-03 22:05 6.46421 -75.27974 18159 ft 328 kts 12°
2026-05-03 22:06 6.48686 -75.27628 18153 ft 327 kts 11°
2026-05-03 22:06 6.50950 -75.27282 18158 ft 327 kts 11°
2026-05-03 22:06 6.53218 -75.26936 18156 ft 327 kts 11°
2026-05-03 22:06 6.55478 -75.26592 18156 ft 327 kts 11°
2026-05-03 22:07 6.57714 -75.26251 18163 ft 327 kts 11°
2026-05-03 22:07 6.59990 -75.25904 18166 ft 327 kts 12°
2026-05-03 22:07 6.62242 -75.25561 18168 ft 327 kts 11°
2026-05-03 22:07 6.64489 -75.25217 18168 ft 327 kts 11°
2026-05-03 22:08 6.66749 -75.24873 18176 ft 327 kts 12°
2026-05-03 22:08 6.69006 -75.24528 18166 ft 328 kts 12°
2026-05-03 22:08 6.71270 -75.24182 18167 ft 328 kts 11°
2026-05-03 22:08 6.73532 -75.23837 18175 ft 328 kts 11°
2026-05-03 22:09 6.75795 -75.23491 18183 ft 328 kts 11°
2026-05-03 22:09 6.78080 -75.23142 18181 ft 328 kts 11°
2026-05-03 22:09 6.80331 -75.22798 18174 ft 328 kts 11°
2026-05-03 22:10 6.84862 -75.22106 18147 ft 328 kts 11°
2026-05-03 22:10 6.87143 -75.21757 18141 ft 328 kts 11°
2026-05-03 22:10 6.89401 -75.21413 18142 ft 328 kts 11°
2026-05-03 22:10 6.91664 -75.21067 18133 ft 328 kts 11°
2026-05-03 22:11 6.93918 -75.20722 18126 ft 328 kts 11°
2026-05-03 22:11 6.96191 -75.20374 18123 ft 328 kts 11°
2026-05-03 22:11 6.98466 -75.20026 18128 ft 328 kts 11°
2026-05-03 22:11 7.00719 -75.19680 18105 ft 328 kts 11°
2026-05-03 22:12 7.03001 -75.19334 18096 ft 329 kts 11°
2026-05-03 22:12 7.05248 -75.18993 18095 ft 329 kts 11°
2026-05-03 22:12 7.07525 -75.18649 18078 ft 329 kts 11°
2026-05-03 22:12 7.09810 -75.18304 18069 ft 330 kts 11°
2026-05-03 22:13 7.12076 -75.17961 18068 ft 330 kts 11°
2026-05-03 22:13 7.14355 -75.17616 18056 ft 330 kts 11°
2026-05-03 22:13 7.16655 -75.17268 18043 ft 330 kts 11°
2026-05-03 22:13 7.18931 -75.16924 18039 ft 329 kts 11°
2026-05-03 22:14 7.21193 -75.16582 18038 ft 330 kts 11°
2026-05-03 22:14 7.23475 -75.16235 18021 ft 330 kts 11°
2026-05-03 22:14 7.25755 -75.15891 18017 ft 330 kts 11°
2026-05-03 22:14 7.28014 -75.15548 18018 ft 330 kts 11°
2026-05-03 22:15 7.30307 -75.15200 18002 ft 331 kts 11°
2026-05-03 22:15 7.32601 -75.14852 17987 ft 332 kts 11°
2026-05-03 22:15 7.34894 -75.14504 17980 ft 333 kts 11°
2026-05-03 22:15 7.37183 -75.14158 17972 ft 334 kts 11°
2026-05-03 22:16 7.39487 -75.13808 17949 ft 334 kts 11°
2026-05-03 22:16 7.41818 -75.13455 17934 ft 335 kts 11°
2026-05-03 22:16 7.44124 -75.13106 17914 ft 335 kts 11°
2026-05-03 22:16 7.46419 -75.12758 17905 ft 335 kts 11°
2026-05-03 22:17 7.48734 -75.12407 17903 ft 335 kts 11°
2026-05-03 22:17 7.51060 -75.12054 17892 ft 335 kts 11°
2026-05-03 22:17 7.53384 -75.11702 17895 ft 336 kts 11°
2026-05-03 22:17 7.55701 -75.11350 17879 ft 336 kts 11°
2026-05-03 22:18 7.58032 -75.10997 17884 ft 335 kts 11°
2026-05-03 22:18 7.60327 -75.10648 17901 ft 336 kts 11°
2026-05-03 22:18 7.62648 -75.10297 17888 ft 337 kts 11°
2026-05-03 22:18 7.65010 -75.09938 17878 ft 338 kts 11°
2026-05-03 22:19 7.67339 -75.09584 17879 ft 339 kts 11°
2026-05-03 22:19 7.69667 -75.09231 17869 ft 340 kts 11°
2026-05-03 22:19 7.72031 -75.08871 17866 ft 341 kts 11°
2026-05-03 22:19 7.74379 -75.08511 17867 ft 341 kts 11°
2026-05-03 22:20 7.76751 -75.08146 17866 ft 342 kts 11°
2026-05-03 22:20 7.79117 -75.07781 17857 ft 342 kts 11°
2026-05-03 22:20 7.81483 -75.07417 17851 ft 343 kts 10°
2026-05-03 22:20 7.83831 -75.07056 17838 ft 343 kts 10°
2026-05-03 22:21 7.86194 -75.06691 17859 ft 342 kts 11°
2026-05-03 22:21 7.88537 -75.06330 17853 ft 342 kts 11°
2026-05-03 22:21 7.90909 -75.05965 17856 ft 341 kts 11°
2026-05-03 22:21 7.93263 -75.05603 17859 ft 341 kts 11°
2026-05-03 22:22 7.95612 -75.05241 17866 ft 342 kts 11°
2026-05-03 22:22 7.97961 -75.04879 17865 ft 342 kts 11°
2026-05-03 22:22 8.00326 -75.04514 17848 ft 343 kts 11°
2026-05-03 22:22 8.02699 -75.04148 17837 ft 343 kts 11°
2026-05-03 22:23 8.05077 -75.03782 17833 ft 342 kts 11°
2026-05-03 22:23 8.07446 -75.03417 17833 ft 342 kts 11°
2026-05-03 22:23 8.09779 -75.03057 17829 ft 342 kts 11°
2026-05-03 22:23 8.12158 -75.02691 17830 ft 342 kts 11°
2026-05-03 22:24 8.14497 -75.02331 17827 ft 342 kts 11°
2026-05-03 22:24 8.16865 -75.01965 17827 ft 342 kts 11°
2026-05-03 22:24 8.19218 -75.01602 17835 ft 342 kts 11°
2026-05-03 22:24 8.21591 -75.01236 17833 ft 342 kts 11°
2026-05-03 22:25 8.23927 -75.00875 17835 ft 342 kts 11°
2026-05-03 22:25 8.26291 -75.00510 17831 ft 342 kts 11°
2026-05-03 22:25 8.28681 -75.00142 17831 ft 343 kts 11°
2026-05-03 22:25 8.31020 -74.99781 17832 ft 342 kts 11°
2026-05-03 22:26 8.33386 -74.99416 17837 ft 343 kts 11°
2026-05-03 22:26 8.35769 -74.99049 17839 ft 343 kts 11°
2026-05-03 22:26 8.38127 -74.98684 17841 ft 343 kts 11°
2026-05-03 22:26 8.40479 -74.98321 17847 ft 343 kts 11°
2026-05-03 22:27 8.42857 -74.97954 17845 ft 343 kts 11°
2026-05-03 22:27 8.45217 -74.97589 17846 ft 343 kts 11°
2026-05-03 22:27 8.47580 -74.97224 17846 ft 343 kts 11°
2026-05-03 22:27 8.49961 -74.96857 17844 ft 343 kts 11°
2026-05-03 22:28 8.52328 -74.96491 17846 ft 343 kts 11°
2026-05-03 22:28 8.54705 -74.96124 17846 ft 343 kts 11°
2026-05-03 22:28 8.57059 -74.95760 17847 ft 344 kts 11°
2026-05-03 22:28 8.59448 -74.95391 17844 ft 344 kts 11°
2026-05-03 22:29 8.61801 -74.95026 17846 ft 344 kts 11°
2026-05-03 22:29 8.64178 -74.94660 17846 ft 343 kts 11°
2026-05-03 22:29 8.66566 -74.94289 17832 ft 343 kts 10°
2026-05-03 22:29 8.68912 -74.93931 17845 ft 342 kts 11°
2026-05-03 22:30 8.71281 -74.93562 17849 ft 342 kts 11°
2026-05-03 22:30 8.73636 -74.93197 17848 ft 343 kts 11°
2026-05-03 22:30 8.75992 -74.92834 17844 ft 343 kts 11°
2026-05-03 22:30 8.78383 -74.92464 17846 ft 344 kts 11°
2026-05-03 22:31 8.80765 -74.92095 17847 ft 344 kts 11°
2026-05-03 22:31 8.83110 -74.91732 17844 ft 344 kts 11°
2026-05-03 22:31 8.85481 -74.91364 17845 ft 344 kts 11°
2026-05-03 22:31 8.87854 -74.90997 17849 ft 344 kts 11°
2026-05-03 22:32 8.90246 -74.90628 17845 ft 344 kts 11°
2026-05-03 22:32 8.92609 -74.90262 17846 ft 344 kts 11°
2026-05-03 22:32 8.94976 -74.89896 17849 ft 343 kts 11°
2026-05-03 22:32 8.97340 -74.89529 17851 ft 344 kts 11°
2026-05-03 22:33 8.99726 -74.89160 17847 ft 344 kts 11°
2026-05-03 22:33 9.02077 -74.88796 17849 ft 344 kts 11°
2026-05-03 22:33 9.04475 -74.88425 17847 ft 344 kts 12°
2026-05-03 22:33 9.06829 -74.88060 17845 ft 344 kts 12°
2026-05-03 22:34 9.09217 -74.87689 17847 ft 344 kts 11°
2026-05-03 22:34 9.11580 -74.87323 17848 ft 344 kts 11°
2026-05-03 22:34 9.13949 -74.86956 17853 ft 344 kts 11°
2026-05-03 22:34 9.16349 -74.86584 17853 ft 344 kts 11°
2026-05-03 22:35 9.18700 -74.86220 17852 ft 344 kts 11°
2026-05-03 22:35 9.21096 -74.85847 17853 ft 344 kts 11°
2026-05-03 22:35 9.23448 -74.85483 17852 ft 344 kts 11°
2026-05-03 22:35 9.25832 -74.85113 17851 ft 344 kts 11°
2026-05-03 22:36 9.28206 -74.84753 17850 ft 344 kts 10°
2026-05-03 22:36 9.30615 -74.84636 17856 ft 346 kts
2026-05-03 22:36 9.33042 -74.84663 17852 ft 346 kts
2026-05-03 22:36 9.35455 -74.84695 17845 ft 347 kts
2026-05-03 22:37 9.37866 -74.84725 17844 ft 347 kts
2026-05-03 22:37 9.40306 -74.84754 17844 ft 347 kts
2026-05-03 22:37 9.42733 -74.84782 17843 ft 347 kts
2026-05-03 22:37 9.45147 -74.84806 17842 ft 348 kts
2026-05-03 22:38 9.47559 -74.84830 17845 ft 347 kts
2026-05-03 22:38 9.50009 -74.84855 17757 ft 351 kts
2026-05-03 22:38 9.52463 -74.84877 17536 ft 357 kts
2026-05-03 22:38 9.54953 -74.84900 17255 ft 357 kts
2026-05-03 22:39 9.57439 -74.84924 16967 ft 355 kts
2026-05-03 22:39 9.59927 -74.84949 16670 ft 353 kts
2026-05-03 22:39 9.62371 -74.84972 16377 ft 351 kts
2026-05-03 22:39 9.64806 -74.84995 16088 ft 349 kts
2026-05-03 22:40 9.67230 -74.85017 15800 ft 347 kts
2026-05-03 22:40 9.69649 -74.85038 15515 ft 346 kts
2026-05-03 22:40 9.72058 -74.85060 15228 ft 344 kts
2026-05-03 22:40 9.74466 -74.85081 14946 ft 343 kts
2026-05-03 22:41 9.76843 -74.85102 14663 ft 341 kts
2026-05-03 22:41 9.79226 -74.85123 14382 ft 340 kts
2026-05-03 22:41 9.81614 -74.85144 14098 ft 339 kts
2026-05-03 22:41 9.83973 -74.85165 13818 ft 338 kts
2026-05-03 22:42 9.86312 -74.85185 13532 ft 337 kts
2026-05-03 22:42 9.88665 -74.85206 13248 ft 335 kts
2026-05-03 22:42 9.91008 -74.85226 12972 ft 334 kts
2026-05-03 22:42 9.93324 -74.85247 12694 ft 333 kts
2026-05-03 22:43 9.95657 -74.85268 12416 ft 331 kts
2026-05-03 22:43 9.97950 -74.85287 12153 ft 330 kts
2026-05-03 22:43 10.00245 -74.85307 11883 ft 328 kts
2026-05-03 22:43 10.02535 -74.85328 11605 ft 327 kts
2026-05-03 22:44 10.04821 -74.85349 11334 ft 325 kts
2026-05-03 22:44 10.07067 -74.85368 11069 ft 323 kts
2026-05-03 22:44 10.09325 -74.85387 10802 ft 322 kts
2026-05-03 22:44 10.11580 -74.85407 10542 ft 320 kts
2026-05-03 22:45 10.13808 -74.85429 10276 ft 319 kts
2026-05-03 22:45 10.16015 -74.85445 10022 ft 317 kts
2026-05-03 22:45 10.18213 -74.85465 9802 ft 311 kts
2026-05-03 22:45 10.20359 -74.85486 9571 ft 306 kts
2026-05-03 22:46 10.22472 -74.85506 9329 ft 301 kts
2026-05-03 22:46 10.24568 -74.85525 9088 ft 298 kts
2026-05-03 22:46 10.26644 -74.85544 8848 ft 295 kts
2026-05-03 22:46 10.28702 -74.85562 8618 ft 292 kts
2026-05-03 22:47 10.30721 -74.85580 8388 ft 290 kts
2026-05-03 22:47 10.32735 -74.85599 8130 ft 287 kts
2026-05-03 22:47 10.34708 -74.85617 7897 ft 280 kts
2026-05-03 22:47 10.36651 -74.85636 7661 ft 273 kts
2026-05-03 22:48 10.38526 -74.85654 7440 ft 265 kts
2026-05-03 22:48 10.40340 -74.85671 7217 ft 258 kts
2026-05-03 22:48 10.42133 -74.85688 7003 ft 252 kts
2026-05-03 22:48 10.43861 -74.85704 6803 ft 247 kts
2026-05-03 22:49 10.45582 -74.85720 6608 ft 242 kts
2026-05-03 22:49 10.47250 -74.85735 6405 ft 238 kts
2026-05-03 22:49 10.48908 -74.85751 6200 ft 234 kts
2026-05-03 22:49 10.50518 -74.85766 6011 ft 230 kts
2026-05-03 22:50 10.52141 -74.85779 5831 ft 230 kts
2026-05-03 22:50 10.53735 -74.85792 5648 ft 229 kts
2026-05-03 22:50 10.55328 -74.85803 5496 ft 226 kts
2026-05-03 22:50 10.56890 -74.85815 5335 ft 225 kts
2026-05-03 22:51 10.58468 -74.85841 5153 ft 224 kts 359°
2026-05-03 22:51 10.59972 -74.86200 4972 ft 225 kts 335°
2026-05-03 22:51 10.61344 -74.86986 4852 ft 222 kts 332°
2026-05-03 22:51 10.62677 -74.87766 4720 ft 220 kts 333°
2026-05-03 22:52 10.64024 -74.88513 4568 ft 220 kts 333°
2026-05-03 22:52 10.65365 -74.89267 4440 ft 218 kts 334°
2026-05-03 22:52 10.66701 -74.89967 4323 ft 215 kts 335°
2026-05-03 22:52 10.68027 -74.90686 4191 ft 214 kts 333°
2026-05-03 22:53 10.69323 -74.91424 4010 ft 216 kts 334°
2026-05-03 22:53 10.70671 -74.92088 3939 ft 208 kts 343°
2026-05-03 22:53 10.72083 -74.92210 3726 ft 206 kts 14°
2026-05-03 22:53 10.73367 -74.91570 3456 ft 207 kts 32°
2026-05-03 22:54 10.74522 -74.90745 3205 ft 203 kts 37°
2026-05-03 22:54 10.75588 -74.89826 2909 ft 196 kts 41°
2026-05-03 22:54 10.76572 -74.88889 2603 ft 189 kts 42°
2026-05-03 22:54 10.77490 -74.88017 2559 ft 169 kts 42°
2026-05-03 22:55 10.78326 -74.87224 2291 ft 162 kts 43°
2026-05-03 22:55 10.79138 -74.86501 1993 ft 150 kts 36°
2026-05-03 22:55 10.79916 -74.85889 1942 ft 133 kts 39°
2026-05-03 22:55 10.80613 -74.85262 1753 ft 131 kts 40°
2026-05-03 22:56 10.81297 -74.84647 1647 ft 132 kts 37°
2026-05-03 22:56 10.82006 -74.84044 1504 ft 132 kts 39°
2026-05-03 22:56 10.82691 -74.83427 1378 ft 132 kts 38°
2026-05-03 22:56 10.83409 -74.82847 1189 ft 132 kts 33°
2026-05-03 22:57 10.84153 -74.82291 990 ft 128 kts 40°
2026-05-03 22:57 10.84825 -74.81699 900 ft 128 kts 44°
2026-05-03 22:57 10.85495 -74.81093 761 ft 129 kts 40°
2026-05-03 22:57 10.86168 -74.80466 570 ft 131 kts 41°
2026-05-03 22:58 10.86871 -74.79881 422 ft 128 kts 41°
2026-05-03 22:58 10.87554 -74.79295 225 ft 128 kts 42°
2026-05-03 22:58 10.88222 -74.78719 105 ft 120 kts 39°
2026-05-03 22:58 10.88729 -74.78285 91 ft 71 kts 39°
2026-05-03 22:59 10.89035 -74.78020 85 ft 47 kts 41°
2026-05-03 22:59 10.89231 -74.77854 83 ft 29 kts 38°
2026-05-03 22:59 10.89352 -74.77746 81 ft 17 kts 52°
2026-05-03 22:59 10.89380 -74.77634 77 ft 15 kts 85°
2026-05-03 23:00 10.89368 -74.77560 76 ft 9 kts 131°
2026-05-03 23:00 10.89308 -74.77535 75 ft 9 kts 161°
2026-05-03 23:00 10.89245 -74.77506 75 ft 10 kts 153°
2026-05-03 23:00 10.89177 -74.77486 74 ft 10 kts 175°
2026-05-03 23:01 10.89106 -74.77500 74 ft 10 kts 212°
2026-05-03 23:01 10.89052 -74.77547 75 ft 9 kts 223°
2026-05-03 23:01 10.89005 -74.77591 76 ft 9 kts 221°
2026-05-03 23:01 10.88958 -74.77631 77 ft 7 kts 210°
2026-05-03 23:02 10.88920 -74.77617 77 ft 3 kts 132°
2026-05-03 23:02 10.88915 -74.77612 77 ft 1 kts 132°
2026-05-03 23:02 10.88906 -74.77602 76 ft 1 kts 132°